Weather in Shitkino

Russia / Irkutsk Oblast     56˚22′19″N   98˚21′08″E
temp.,
°C
wind,
m/s
gust,
m/s
humid.,
%
clouds,
%
prec.,
mm/h
press.,
hPa
HPBL,
m
29 november, sun
sun2923:00−17˚nnw00950 0.0 104420
02:00−17˚sw01950 0.0 104320
05:00−17˚wsw00950 0.0 104320
08:00−17˚wsw019411 0.0 104320
11:00−15˚sw119082 0.0 104362
14:00−12˚wsw128167 0.0 1041238
17:00−14˚wsw229167 0.0 104223
20:00−14˚w249283 0.0 104294
30 november, mon
mon3023:00−15˚w2691100 0.0 1042177
02:00−14˚wsw2691100 0.0 1042198
05:00−15˚wsw2692100 0.0 1042167
08:00−15˚w269297 0.0 1042161
11:00−14˚w398794 0.0 1042320
14:00−11˚w388192 0.0 1041364
17:00−11˚w268684 0.0 1041179
20:00−11˚w378992 0.0 1041245
1 december, tue
tue123:00−12˚w3990100 0.0 1040299
02:00−12˚w31089100 0.0 1040437
05:00−11˚w4993100 0.3 1040611
08:00−12˚w4993100 0.9 1040615
11:00−11˚w4992100 0.4 1040634
14:00−10˚w5990100 0.8 1040681
17:00−11˚w4993100 0.3 1040580
20:00−11˚w41093100 0.6 1040601
2 december, wed
wed223:00−11˚w41093100 0.5 1040746
02:00−11˚w41093100 0.9 1041719
05:00−12˚w3993100 0.3 1042634
08:00−12˚w3993100 0.4 1043579
11:00−12˚w499199 0.1 1044601
14:00−11˚w498899 0.3 1044624
17:00−12˚w4993100 0.1 1044528
20:00−11˚w41193100 0.3 1043483
3 december, thu
thu323:00−11˚w41192100 0.1 1042490
02:00−10˚w41385100 0.1 1041556
05:00−10˚w41382100 0.0 1039588
08:00−10˚w41383100 0.0 1038548
11:00−9˚w51481100 0.0 1036641
14:00−7˚w61479100 0.0 1034723
17:00−9˚w51485100 0.0 1033650
20:00−10˚w51585100 0.0 1033666